This is the latest recevied weather packets stored in our database for station/object HI8S-13. If no packets are shown the sender has not sent any weather packets the latest 1 day(s).
| Time | Temp. | Humidity | Pressure | Rain* | Wind** | Luminosity | Snow |
|---|---|---|---|---|---|---|---|
| 1778078309 | 30° C | 64% | 1018.7 hPa | 0 mm | - | - | - |
| 1778078007 | 30.56° C | 68% | 1018.6 hPa | 0 mm | - | - | - |
| 1778076825 | 29.44° C | 69% | 1018.5 hPa | 0 mm | - | - | - |
| 1778076224 | 29.44° C | 70% | 1018.5 hPa | 0 mm | - | - | - |
| 1778075910 | 29.44° C | 68% | 1018.5 hPa | 0 mm | - | - | - |
| 1778075605 | 29.44° C | 70% | 1018.5 hPa | 0 mm | - | - | - |
| 1778075309 | 30° C | 70% | 1018.4 hPa | 0 mm | - | - | - |
| 1778074407 | 28.89° C | 74% | 1018.5 hPa | 0 mm | - | - | - |
| 1778074112 | 28.33° C | 77% | 1018.5 hPa | 0 mm | - | - | - |
| 1778073810 | 28.33° C | 77% | 1018.5 hPa | 0 mm | - | - | - |
| 1778073512 | 27.78° C | 78% | 1018.4 hPa | 0 mm | - | - | - |
| 1778073211 | 27.78° C | 79% | 1018.4 hPa | 0 mm | - | - | - |
| 1778072009 | 27.22° C | 80% | 1018.2 hPa | 0 mm | - | - | - |
| 1778071714 | 27.22° C | 80% | 1018.3 hPa | 0 mm | - | - | - |
| 1778071420 | 27.22° C | 80% | 1018.2 hPa | 0 mm | - | - | - |
| 1778070823 | 26.67° C | 80% | 1018.1 hPa | 0 mm | - | - | - |
| 1778070508 | 26.67° C | 82% | 1018.1 hPa | 0 mm | - | - | - |
| 1778070213 | 26.67° C | 81% | 1018 hPa | 0 mm | - | - | - |
| 1778068418 | 25.56° C | 83% | 1017.8 hPa | 0 mm | - | - | - |
| 1778067807 | 25.56° C | 83% | 1017.6 hPa | 0 mm | - | - | - |
| 1778067512 | 25.56° C | 84% | 1017.5 hPa | 0 mm | - | - | - |
| 1778067217 | 25° C | 84% | 1017.5 hPa | 0 mm | - | - | - |
| 1778065711 | 24.44° C | 86% | 1017.3 hPa | 0 mm | - | - | - |
| 1778065114 | - | - | 1017.2 hPa | 0 mm | - | - | - |
| 1778064810 | - | - | 1017.1 hPa | 0 mm | - | - | - |
* Rain latest hour (hover to see other rain measurements)
** Current wind speed in m/s (hover to see current wind gust speed)